Time,TemperatureF,DewpointF,PressureIn,WindDirection,WindDirectionDegrees,WindSpeedMPH,WindSpeedGustMPH,Humidity,HourlyPrecipIn,Conditions,Clouds,dailyrainin,SoftwareType,DateUTC
2014-08-20 00:04:00,57.6,54.7,29.79,SE,129,0.0,0.0,90,0.00,,-RA,0.00,VWS V15.00,2014-08-20 06:04:00,
2014-08-20 00:09:00,57.6,54.7,29.79,SE,129,0.0,0.0,90,0.00,,-RA,0.00,VWS V15.00,2014-08-20 06:09:00,
2014-08-20 00:14:00,57.6,54.7,29.79,SE,129,0.0,0.0,90,0.00,,-RA,0.00,VWS V15.00,2014-08-20 06:14:00,
2014-08-20 00:19:00,57.6,54.7,29.79,SE,134,0.0,0.0,90,0.00,,-RA,0.00,VWS V15.00,2014-08-20 06:19:00,
2014-08-20 00:24:00,57.4,54.8,29.79,SSE,152,0.0,0.0,91,0.00,,-RA,0.00,VWS V15.00,2014-08-20 06:24:00,
2014-08-20 00:29:00,57.4,54.8,29.79,SSE,152,0.0,0.0,91,0.00,,-RA,0.00,VWS V15.00,2014-08-20 06:29:00,
2014-08-20 00:34:00,57.4,54.8,29.79,SSE,152,0.0,0.0,91,0.00,,CLR,0.00,VWS V15.00,2014-08-20 06:34:00,
2014-08-20 00:39:00,57.4,54.8,29.79,SSE,152,0.0,0.0,91,0.00,,CLR,0.00,VWS V15.00,2014-08-20 06:39:00,
2014-08-20 00:44:00,57.4,54.8,29.79,SSE,152,0.0,0.0,91,0.00,,CLR,0.00,VWS V15.00,2014-08-20 06:44:00,
2014-08-20 00:49:00,57.4,54.8,29.79,SSE,152,0.0,0.0,91,0.00,,CLR,0.00,VWS V15.00,2014-08-20 06:49:00,
2014-08-20 00:54:00,57.4,54.8,29.79,SSE,152,0.0,0.0,91,0.00,,CLR,0.00,VWS V15.00,2014-08-20 06:54:00,
2014-08-20 00:59:00,57.2,54.6,29.79,NE,41,0.0,0.0,91,0.00,,CLR,0.00,VWS V15.00,2014-08-20 06:59:00,
2014-08-20 01:04:00,57.2,54.6,29.79,NE,41,0.0,0.0,91,0.00,,CLR,0.00,VWS V15.00,2014-08-20 07:04:00,
2014-08-20 01:09:00,57.2,54.6,29.79,NE,37,0.0,0.0,91,0.00,,CLR,0.00,VWS V15.00,2014-08-20 07:09:00,
2014-08-20 01:14:00,57.0,54.7,29.79,NE,55,0.0,0.0,92,0.00,,CLR,0.00,VWS V15.00,2014-08-20 07:14:00,
2014-08-20 01:19:00,57.0,54.7,29.79,ENE,74,0.0,0.0,92,0.00,,CLR,0.00,VWS V15.00,2014-08-20 07:19:00,
2014-08-20 01:24:00,56.8,54.5,29.79,East,94,0.0,0.0,92,0.00,,CLR,0.00,VWS V15.00,2014-08-20 07:24:00,
2014-08-20 01:29:00,56.8,54.5,29.79,East,85,0.0,0.0,92,0.00,,CLR,0.00,VWS V15.00,2014-08-20 07:29:00,
2014-08-20 01:34:00,56.8,54.5,29.79,East,85,0.0,0.0,92,0.00,,FEW110,0.00,VWS V15.00,2014-08-20 07:34:00,
2014-08-20 01:39:00,56.7,54.4,29.79,East,85,0.0,0.0,92,0.00,,FEW110,0.00,VWS V15.00,2014-08-20 07:39:00,
2014-08-20 01:44:00,56.7,54.4,29.79,East,85,0.0,0.0,92,0.00,,FEW110,0.00,VWS V15.00,2014-08-20 07:44:00,
2014-08-20 01:49:00,56.5,54.2,29.79,East,85,0.0,0.0,92,0.00,,FEW110,0.00,VWS V15.00,2014-08-20 07:49:00,
2014-08-20 01:54:00,56.5,54.2,29.79,East,85,0.0,0.0,92,0.00,,FEW110,0.00,VWS V15.00,2014-08-20 07:54:00,
2014-08-20 01:59:00,56.3,54.0,29.79,East,85,0.0,0.0,92,0.00,,FEW110,0.00,VWS V15.00,2014-08-20 07:59:00,
2014-08-20 02:04:00,56.3,54.0,29.79,East,85,0.0,0.0,92,0.00,,FEW110,0.00,VWS V15.00,2014-08-20 08:04:00,
2014-08-20 02:09:00,56.3,54.0,29.79,East,85,0.0,0.0,92,0.00,,FEW110,0.00,VWS V15.00,2014-08-20 08:09:00,
2014-08-20 02:14:00,56.3,54.0,29.79,SE,127,0.0,0.0,92,0.00,,FEW110,0.00,VWS V15.00,2014-08-20 08:14:00,
2014-08-20 02:19:00,56.3,54.0,29.79,SE,127,0.0,0.0,92,0.00,,FEW110,0.00,VWS V15.00,2014-08-20 08:19:00,
2014-08-20 02:24:00,56.3,54.3,29.79,SE,127,0.0,0.0,93,0.00,,FEW110,0.00,VWS V15.00,2014-08-20 08:24:00,
2014-08-20 02:29:00,56.3,54.3,29.79,SE,127,0.0,0.0,93,0.00,,FEW110,0.00,VWS V15.00,2014-08-20 08:29:00,
2014-08-20 02:34:00,56.3,54.3,29.79,SE,127,0.0,0.0,93,0.00,,BKN120,0.00,VWS V15.00,2014-08-20 08:34:00,
2014-08-20 02:39:00,56.3,54.3,29.79,SE,127,0.0,0.0,93,0.00,,BKN120,0.00,VWS V15.00,2014-08-20 08:39:00,
2014-08-20 02:44:00,56.3,54.3,29.79,SE,127,0.0,0.0,93,0.00,,BKN120,0.00,VWS V15.00,2014-08-20 08:44:00,
2014-08-20 02:49:00,56.3,54.3,29.79,SE,127,0.0,0.0,93,0.00,,BKN120,0.00,VWS V15.00,2014-08-20 08:49:00,
2014-08-20 02:54:00,56.3,54.3,29.79,SE,127,0.0,0.0,93,0.00,,BKN120,0.00,VWS V15.00,2014-08-20 08:54:00,
2014-08-20 02:59:00,56.3,54.3,29.79,SE,127,0.0,0.0,93,0.00,,BKN120,0.00,VWS V15.00,2014-08-20 08:59:00,
2014-08-20 03:04:00,56.3,54.3,29.79,SE,127,0.0,0.0,93,0.00,,BKN120,0.00,VWS V15.00,2014-08-20 09:04:00,
2014-08-20 03:09:00,56.1,54.1,29.79,SE,127,0.0,0.0,93,0.00,,BKN120,0.00,VWS V15.00,2014-08-20 09:09:00,
2014-08-20 03:14:00,56.1,54.1,29.79,SE,127,0.0,0.0,93,0.00,,BKN120,0.00,VWS V15.00,2014-08-20 09:14:00,
2014-08-20 03:19:00,56.1,54.1,29.82,SE,127,0.0,0.0,93,0.00,,BKN120,0.16,VWS V15.00,2014-08-20 09:19:00,
2014-08-20 03:24:00,55.9,54.0,29.82,SE,127,0.0,0.0,93,0.00,,BKN120,0.00,VWS V15.00,2014-08-20 09:24:00,
2014-08-20 03:29:00,55.9,54.0,29.82,SE,127,0.0,0.0,93,0.00,,BKN120,0.00,VWS V15.00,2014-08-20 09:29:00,
2014-08-20 03:34:00,55.9,54.0,29.82,SE,127,0.0,0.0,93,0.00,,BKN110,0.00,VWS V15.00,2014-08-20 09:34:00,
2014-08-20 03:39:00,55.8,53.8,29.79,SE,127,0.0,0.0,93,0.00,,BKN110,0.00,VWS V15.00,2014-08-20 09:39:00,
2014-08-20 03:44:00,55.6,53.6,29.79,SE,127,0.0,0.0,93,0.00,,BKN110,0.00,VWS V15.00,2014-08-20 09:44:00,
2014-08-20 03:49:00,55.4,53.4,29.79,SE,127,0.0,0.0,93,0.00,,BKN110,0.00,VWS V15.00,2014-08-20 09:49:00,
2014-08-20 03:54:00,55.2,53.2,29.79,SE,127,0.0,0.0,93,0.00,,BKN110,0.00,VWS V15.00,2014-08-20 09:54:00,
2014-08-20 03:59:00,55.2,53.2,29.79,SE,127,0.0,0.0,93,0.00,,BKN110,0.00,VWS V15.00,2014-08-20 09:59:00,
2014-08-20 04:04:00,55.0,53.1,29.79,SE,127,0.0,0.0,93,0.00,,BKN110,0.00,VWS V15.00,2014-08-20 10:04:00,
2014-08-20 04:09:00,54.9,52.9,29.79,SE,127,0.0,0.0,93,0.00,,BKN110,0.00,VWS V15.00,2014-08-20 10:09:00,
2014-08-20 04:14:00,54.9,52.9,29.79,SE,127,0.0,0.0,93,0.00,,BKN110,0.00,VWS V15.00,2014-08-20 10:14:00,
2014-08-20 04:19:00,54.7,52.7,29.79,SE,127,0.0,0.0,93,0.00,,BKN110,0.00,VWS V15.00,2014-08-20 10:19:00,
2014-08-20 04:24:00,54.7,52.7,29.79,SE,127,0.0,0.0,93,0.00,,BKN110,0.00,VWS V15.00,2014-08-20 10:24:00,
2014-08-20 04:29:00,54.7,52.7,29.79,SE,127,0.0,0.0,93,0.00,,BKN110,0.00,VWS V15.00,2014-08-20 10:29:00,
2014-08-20 04:34:00,54.7,53.0,29.79,SE,127,0.0,0.0,94,0.00,,BKN120,0.00,VWS V15.00,2014-08-20 10:34:00,
2014-08-20 04:39:00,54.5,52.8,29.79,SE,127,0.0,0.0,94,0.00,,BKN120,0.00,VWS V15.00,2014-08-20 10:39:00,
2014-08-20 04:44:00,54.5,52.8,29.79,SE,127,0.0,0.0,94,0.00,,BKN120,0.00,VWS V15.00,2014-08-20 10:44:00,
2014-08-20 04:49:00,54.5,52.8,29.79,East,79,0.0,0.0,94,0.00,,BKN120,0.00,VWS V15.00,2014-08-20 10:49:00,
2014-08-20 04:54:00,54.5,52.8,29.82,ESE,110,0.0,0.0,94,0.00,,BKN120,0.00,VWS V15.00,2014-08-20 10:54:00,
2014-08-20 04:59:00,54.5,52.8,29.82,ESE,110,0.0,0.0,94,0.00,,BKN120,0.00,VWS V15.00,2014-08-20 10:59:00,
2014-08-20 05:04:00,54.5,52.8,29.82,ESE,110,0.0,0.0,94,0.00,,BKN120,0.00,VWS V15.00,2014-08-20 11:04:00,
2014-08-20 05:09:00,54.5,52.8,29.82,SSE,151,0.0,0.0,94,0.00,,BKN120,0.00,VWS V15.00,2014-08-20 11:09:00,
2014-08-20 05:14:00,54.5,52.8,29.82,SSE,151,0.0,0.0,94,0.00,,BKN120,0.00,VWS V15.00,2014-08-20 11:14:00,
2014-08-20 05:19:00,54.7,53.0,29.82,SSE,151,0.0,0.0,94,0.00,,BKN120,0.00,VWS V15.00,2014-08-20 11:19:00,
2014-08-20 05:24:00,54.9,53.5,29.82,SSE,151,0.0,0.0,95,0.00,,BKN120,0.00,VWS V15.00,2014-08-20 11:24:00,
2014-08-20 05:29:00,55.0,53.6,29.82,SW,217,0.0,0.0,95,0.00,,BKN120,0.00,VWS V15.00,2014-08-20 11:29:00,
2014-08-20 05:34:00,55.2,53.8,29.82,SW,217,0.0,0.0,95,0.00,,-RA,0.00,VWS V15.00,2014-08-20 11:34:00,
2014-08-20 05:39:00,55.2,53.8,29.82,SW,217,0.0,0.0,95,0.00,,-RA,0.00,VWS V15.00,2014-08-20 11:39:00,
2014-08-20 05:44:00,55.2,53.8,29.82,SW,217,0.0,0.0,95,0.00,,-RA,0.00,VWS V15.00,2014-08-20 11:44:00,
2014-08-20 05:49:00,55.2,53.8,29.82,SW,217,0.0,0.0,95,0.00,,-RA,0.00,VWS V15.00,2014-08-20 11:49:00,
2014-08-20 05:54:00,55.0,53.6,29.82,East,90,0.0,0.0,95,0.00,,-RA,0.00,VWS V15.00,2014-08-20 11:54:00,
2014-08-20 05:59:00,55.0,53.6,29.82,East,90,0.0,0.0,95,0.00,,-RA,0.00,VWS V15.00,2014-08-20 11:59:00,
2014-08-20 06:04:00,55.0,53.6,29.82,East,90,0.0,0.0,95,0.00,,-RA,0.00,VWS V15.00,2014-08-20 12:04:00,
2014-08-20 06:09:00,55.0,53.6,29.82,East,90,0.0,0.0,95,0.00,,-RA,0.00,VWS V15.00,2014-08-20 12:09:00,
2014-08-20 06:14:00,55.0,53.6,29.82,East,87,0.0,0.0,95,0.00,,-RA,0.00,VWS V15.00,2014-08-20 12:14:00,
2014-08-20 06:19:00,55.0,53.6,29.82,East,87,0.0,0.0,95,0.00,,-RA,0.00,VWS V15.00,2014-08-20 12:19:00,
2014-08-20 06:24:00,55.2,54.1,29.82,East,87,0.0,0.0,96,0.00,,-RA,0.00,VWS V15.00,2014-08-20 12:24:00,
2014-08-20 06:29:00,55.2,54.1,29.82,East,88,0.0,0.0,96,0.00,,-RA,0.00,VWS V15.00,2014-08-20 12:29:00,
2014-08-20 06:34:00,55.4,54.0,29.82,East,88,0.0,0.0,95,0.00,,-RA,0.00,VWS V15.00,2014-08-20 12:34:00,
2014-08-20 06:39:00,55.4,54.0,29.82,SW,234,0.0,0.0,95,0.00,,-RA,0.00,VWS V15.00,2014-08-20 12:39:00,
2014-08-20 06:44:00,55.4,54.3,29.82,WSW,256,0.0,0.0,96,0.00,,-RA,0.00,VWS V15.00,2014-08-20 12:44:00,
2014-08-20 06:49:00,55.6,54.5,29.82,WSW,240,0.0,0.0,96,0.00,,-RA,0.00,VWS V15.00,2014-08-20 12:49:00,
2014-08-20 06:54:00,55.8,54.6,29.82,NNE,26,0.0,0.0,96,0.00,,-RA,0.00,VWS V15.00,2014-08-20 12:54:00,
2014-08-20 06:59:00,55.8,54.6,29.82,North,357,0.0,0.0,96,0.00,,-RA,0.00,VWS V15.00,2014-08-20 12:59:00,
2014-08-20 07:04:00,55.8,54.6,29.82,SE,143,0.0,0.0,96,0.00,,-RA,0.00,VWS V15.00,2014-08-20 13:04:00,
2014-08-20 07:09:00,55.9,54.8,29.82,SE,143,0.0,0.0,96,0.00,,-RA,0.00,VWS V15.00,2014-08-20 13:09:00,
2014-08-20 07:14:00,56.1,55.0,29.82,SE,143,0.0,0.0,96,0.00,,-RA,0.00,VWS V15.00,2014-08-20 13:14:00,
2014-08-20 07:19:00,56.1,55.0,29.82,East,94,0.0,0.0,96,0.00,,-RA,0.00,VWS V15.00,2014-08-20 13:19:00,
2014-08-20 07:24:00,56.1,55.0,29.82,North,10,0.0,0.0,96,0.00,,-RA,0.00,VWS V15.00,2014-08-20 13:24:00,
2014-08-20 07:29:00,55.9,54.8,29.82,North,10,0.0,0.0,96,0.00,,-RA,0.00,VWS V15.00,2014-08-20 13:29:00,
2014-08-20 07:34:00,55.9,54.8,29.82,East,89,0.0,0.0,96,0.00,,FEW110,0.00,VWS V15.00,2014-08-20 13:34:00,
2014-08-20 07:39:00,55.9,54.8,29.85,East,89,0.0,0.0,96,0.00,,FEW110,0.00,VWS V15.00,2014-08-20 13:39:00,
2014-08-20 07:44:00,55.9,54.8,29.85,ENE,78,0.0,0.0,96,0.00,,FEW110,0.00,VWS V15.00,2014-08-20 13:44:00,
2014-08-20 07:49:00,55.9,54.8,29.85,North,0,0.0,0.0,96,0.00,,OVC090,0.00,VWS V15.00,2014-08-20 13:49:00,
2014-08-20 07:54:00,55.9,54.8,29.85,East,83,0.0,0.0,96,0.00,,OVC090,0.00,VWS V15.00,2014-08-20 13:54:00,
2014-08-20 07:59:00,55.9,54.8,29.85,NNE,24,0.0,0.0,96,0.00,,OVC090,0.00,VWS V15.00,2014-08-20 13:59:00,
2014-08-20 08:04:00,56.1,55.0,29.85,ESE,121,0.0,0.0,96,0.00,,FEW090,0.00,VWS V15.00,2014-08-20 14:04:00,
2014-08-20 08:09:00,56.3,55.2,29.85,NW,313,0.0,0.0,96,0.00,,OVC090,0.00,VWS V15.00,2014-08-20 14:09:00,
2014-08-20 08:14:00,56.5,55.4,29.85,North,0,0.0,0.0,96,0.00,,OVC090,0.00,VWS V15.00,2014-08-20 14:14:00,
2014-08-20 08:19:00,56.7,55.5,29.85,North,0,0.0,0.0,96,0.00,,FEW110,0.00,VWS V15.00,2014-08-20 14:19:00,
2014-08-20 08:24:00,56.8,55.7,29.85,ENE,70,0.0,0.0,96,0.00,,FEW110,0.00,VWS V15.00,2014-08-20 14:24:00,
2014-08-20 08:29:00,57.2,56.1,29.85,East,92,0.0,0.0,96,0.00,,FEW110,0.00,VWS V15.00,2014-08-20 14:29:00,
2014-08-20 08:34:00,57.4,56.2,29.85,East,92,0.0,0.0,96,0.00,,OVC085,0.00,VWS V15.00,2014-08-20 14:34:00,
2014-08-20 08:39:00,57.6,56.4,29.85,NE,49,0.0,0.0,96,0.00,,OVC085,0.00,VWS V15.00,2014-08-20 14:39:00,
2014-08-20 08:44:00,57.7,56.6,29.85,North,0,0.0,0.0,96,0.00,,OVC085,0.00,VWS V15.00,2014-08-20 14:44:00,
2014-08-20 08:49:00,57.7,56.3,29.85,North,0,0.0,0.0,95,0.00,,OVC085,0.00,VWS V15.00,2014-08-20 14:49:00,
2014-08-20 08:54:00,57.9,56.5,29.85,North,0,0.0,0.0,95,0.00,,OVC085,0.00,VWS V15.00,2014-08-20 14:54:00,
2014-08-20 08:59:00,58.1,56.7,29.85,North,0,0.0,0.0,95,0.00,,OVC085,0.00,VWS V15.00,2014-08-20 14:59:00,
2014-08-20 09:04:00,58.3,56.9,29.85,North,0,0.0,0.0,95,0.00,,OVC085,0.00,VWS V15.00,2014-08-20 15:04:00,
2014-08-20 09:09:00,58.5,57.3,29.85,North,0,0.0,0.0,96,0.00,,OVC085,0.00,VWS V15.00,2014-08-20 15:09:00,
2014-08-20 09:14:00,58.6,57.5,29.85,West,260,0.0,0.0,96,0.00,,OVC085,0.00,VWS V15.00,2014-08-20 15:14:00,
2014-08-20 09:19:00,59.0,57.6,29.85,West,260,0.0,0.0,95,0.00,,OVC085,0.00,VWS V15.00,2014-08-20 15:19:00,
2014-08-20 09:24:00,59.2,57.8,29.85,West,260,0.0,0.0,95,0.00,,OVC085,0.00,VWS V15.00,2014-08-20 15:24:00,
2014-08-20 09:29:00,59.4,57.9,29.85,NW,323,0.0,0.0,95,0.00,,OVC085,0.00,VWS V15.00,2014-08-20 15:29:00,
2014-08-20 09:34:00,59.4,57.9,29.85,North,353,0.0,0.0,95,0.00,,-RA,0.00,VWS V15.00,2014-08-20 15:34:00,
2014-08-20 09:39:00,59.4,57.6,29.85,ENE,64,0.0,0.0,94,0.00,,-RA,0.00,VWS V15.00,2014-08-20 15:39:00,
2014-08-20 09:44:00,59.4,57.6,29.85,NE,43,0.0,0.0,94,0.00,,-RA,0.00,VWS V15.00,2014-08-20 15:44:00,
2014-08-20 09:49:00,59.2,57.2,29.85,ENE,62,0.0,0.0,93,0.00,,-RA,0.00,VWS V15.00,2014-08-20 15:49:00,
2014-08-20 09:54:00,59.2,57.2,29.85,ENE,65,0.0,0.0,93,0.00,,-RA,0.00,VWS V15.00,2014-08-20 15:54:00,
2014-08-20 09:59:00,59.0,56.7,29.85,ENE,65,0.0,0.0,92,0.00,,-RA,0.00,VWS V15.00,2014-08-20 15:59:00,
2014-08-20 10:04:00,58.8,56.5,29.85,East,87,0.0,0.0,92,0.00,,-RA,0.00,VWS V15.00,2014-08-20 16:04:00,
2014-08-20 10:09:00,59.0,56.7,29.85,ENE,66,0.0,0.0,92,0.00,,-RA,0.00,VWS V15.00,2014-08-20 16:09:00,
2014-08-20 10:14:00,59.4,57.0,29.85,ENE,64,0.0,0.0,92,0.00,,-RA,0.00,VWS V15.00,2014-08-20 16:14:00,
2014-08-20 10:19:00,59.7,57.4,29.85,ENE,77,0.0,0.0,92,0.00,,-RA,0.00,VWS V15.00,2014-08-20 16:19:00,
2014-08-20 10:24:00,60.1,57.8,29.85,East,87,0.0,0.0,92,0.00,,-RA,0.00,VWS V15.00,2014-08-20 16:24:00,
2014-08-20 10:29:00,60.6,58.3,29.85,East,87,0.0,0.0,92,0.00,,-RA,0.00,VWS V15.00,2014-08-20 16:29:00,
2014-08-20 10:34:00,61.3,58.7,29.85,East,87,0.0,0.0,91,0.00,,BKN090,0.00,VWS V15.00,2014-08-20 16:34:00,
2014-08-20 10:39:00,61.7,59.0,29.85,East,87,0.0,0.0,91,0.00,,BKN090,0.00,VWS V15.00,2014-08-20 16:39:00,
2014-08-20 10:44:00,61.9,58.9,29.85,West,275,0.0,0.0,90,0.00,,BKN090,0.00,VWS V15.00,2014-08-20 16:44:00,
2014-08-20 10:49:00,62.4,59.5,29.85,NW,306,0.0,0.0,90,0.00,,BKN090,0.00,VWS V15.00,2014-08-20 16:49:00,
2014-08-20 10:54:00,63.0,59.7,29.85,North,5,0.0,0.0,89,0.00,,BKN090,0.00,VWS V15.00,2014-08-20 16:54:00,
2014-08-20 10:59:00,63.5,60.2,29.85,West,264,0.0,0.0,89,0.00,,BKN090,0.00,VWS V15.00,2014-08-20 16:59:00,
2014-08-20 11:04:00,63.9,59.6,29.85,North,353,0.0,0.0,86,0.00,,BKN090,0.00,VWS V15.00,2014-08-20 17:04:00,
2014-08-20 11:09:00,63.9,59.3,29.85,North,353,0.0,0.0,85,0.00,,BKN090,0.00,VWS V15.00,2014-08-20 17:09:00,
2014-08-20 11:14:00,64.2,59.0,29.85,NE,40,0.0,0.0,83,0.00,,BKN090,0.00,VWS V15.00,2014-08-20 17:14:00,
2014-08-20 11:19:00,64.4,58.5,29.85,North,11,0.0,0.0,81,0.00,,BKN090,0.00,VWS V15.00,2014-08-20 17:19:00,
2014-08-20 11:24:00,64.8,58.5,29.85,NE,47,0.0,0.0,80,0.00,,BKN090,0.00,VWS V15.00,2014-08-20 17:24:00,
2014-08-20 11:29:00,65.5,59.2,29.85,NNW,341,0.0,2.7,80,0.00,,BKN090,0.00,VWS V15.00,2014-08-20 17:29:00,
2014-08-20 11:34:00,65.8,58.8,29.85,SW,224,0.0,0.0,78,0.00,,OVC120,0.00,VWS V15.00,2014-08-20 17:34:00,
2014-08-20 11:39:00,66.0,58.6,29.85,WSW,239,3.1,4.0,77,0.00,,OVC120,0.00,VWS V15.00,2014-08-20 17:39:00,
2014-08-20 11:44:00,66.4,58.2,29.85,WSW,249,0.0,0.0,75,0.00,,OVC120,0.00,VWS V15.00,2014-08-20 17:44:00,
2014-08-20 11:49:00,66.7,58.2,29.85,West,278,0.0,0.0,74,0.00,,OVC120,0.00,VWS V15.00,2014-08-20 17:49:00,
2014-08-20 11:54:00,67.1,58.2,29.85,NNW,346,0.0,0.0,73,0.00,,OVC120,0.00,VWS V15.00,2014-08-20 17:54:00,
2014-08-20 11:59:00,67.5,58.1,29.85,SW,226,0.0,0.0,72,0.00,,OVC120,0.00,VWS V15.00,2014-08-20 17:59:00,
2014-08-20 12:04:00,67.6,57.5,29.85,North,4,0.0,0.0,70,0.00,,OVC120,0.00,VWS V15.00,2014-08-20 18:04:00,
2014-08-20 12:09:00,67.6,57.1,29.85,SW,232,0.0,0.0,69,0.00,,OVC120,0.00,VWS V15.00,2014-08-20 18:09:00,
2014-08-20 12:14:00,67.8,57.3,29.85,North,357,0.0,0.0,69,0.00,,OVC120,0.00,VWS V15.00,2014-08-20 18:14:00,
2014-08-20 12:19:00,68.0,56.7,29.85,North,3,0.0,0.0,67,0.00,,OVC120,0.00,VWS V15.00,2014-08-20 18:19:00,
2014-08-20 12:24:00,68.2,56.4,29.85,North,3,0.0,0.0,66,0.00,,OVC120,0.00,VWS V15.00,2014-08-20 18:24:00,
2014-08-20 12:29:00,68.5,55.9,29.85,SW,235,0.0,0.0,64,0.00,,OVC120,0.00,VWS V15.00,2014-08-20 18:29:00,
2014-08-20 12:34:00,68.7,55.6,29.85,South,182,0.0,0.0,63,0.00,,OVC070,0.00,VWS V15.00,2014-08-20 18:34:00,
2014-08-20 12:39:00,68.9,55.8,29.85,ENE,71,0.0,0.0,63,0.00,,OVC070,0.00,VWS V15.00,2014-08-20 18:39:00,
2014-08-20 12:44:00,69.1,56.0,29.85,SE,145,0.0,0.0,63,0.00,,OVC070,0.00,VWS V15.00,2014-08-20 18:44:00,
2014-08-20 12:49:00,69.4,56.8,29.85,SW,232,0.0,0.0,64,0.00,,OVC070,0.00,VWS V15.00,2014-08-20 18:49:00,
2014-08-20 12:54:00,69.8,57.1,29.85,WSW,237,0.0,0.0,64,0.00,,OVC070,0.00,VWS V15.00,2014-08-20 18:54:00,
2014-08-20 12:59:00,70.2,57.4,29.85,SW,219,0.0,0.0,64,0.00,,OVC070,0.00,VWS V15.00,2014-08-20 18:59:00,
2014-08-20 13:04:00,70.3,57.2,29.85,SW,234,0.0,0.0,63,0.00,,OVC070,0.00,VWS V15.00,2014-08-20 19:04:00,
2014-08-20 13:09:00,70.3,56.7,29.85,SSW,210,0.0,0.0,62,0.00,,OVC070,0.00,VWS V15.00,2014-08-20 19:09:00,
2014-08-20 13:14:00,70.5,55.5,29.85,NW,326,0.0,2.7,59,0.00,,OVC070,0.00,VWS V15.00,2014-08-20 19:14:00,
2014-08-20 13:19:00,70.3,54.9,29.85,East,84,0.0,0.0,58,0.00,,OVC070,0.00,VWS V15.00,2014-08-20 19:19:00,
2014-08-20 13:24:00,70.3,53.9,29.85,ENE,73,0.0,0.0,56,0.00,,OVC070,0.00,VWS V15.00,2014-08-20 19:24:00,
2014-08-20 13:29:00,70.2,53.8,29.85,NE,43,0.0,0.0,56,0.00,,OVC070,0.00,VWS V15.00,2014-08-20 19:29:00,
2014-08-20 13:34:00,70.3,53.4,29.85,NNE,17,0.0,0.0,55,0.00,,BKN037,0.00,VWS V15.00,2014-08-20 19:34:00,
2014-08-20 13:39:00,70.5,54.1,29.85,NNE,17,0.0,0.0,56,0.00,,BKN037,0.00,VWS V15.00,2014-08-20 19:39:00,
2014-08-20 13:44:00,70.9,54.9,29.85,NW,322,0.0,0.0,57,0.00,,BKN037,0.00,VWS V15.00,2014-08-20 19:44:00,
2014-08-20 13:49:00,71.1,55.1,29.85,WSW,245,0.0,0.0,57,0.00,,BKN037,0.00,VWS V15.00,2014-08-20 19:49:00,
2014-08-20 13:54:00,71.2,55.2,29.85,WSW,251,0.0,2.2,57,0.00,,BKN037,0.00,VWS V15.00,2014-08-20 19:54:00,
2014-08-20 13:59:00,71.4,55.4,29.85,North,349,0.0,0.0,57,0.00,,BKN037,0.00,VWS V15.00,2014-08-20 19:59:00,
2014-08-20 14:04:00,71.6,55.1,29.85,North,349,0.0,0.0,56,0.00,,BKN037,0.00,VWS V15.00,2014-08-20 20:04:00,
2014-08-20 14:09:00,71.8,54.8,29.85,North,349,0.0,0.0,55,0.00,,BKN037,0.00,VWS V15.00,2014-08-20 20:09:00,
2014-08-20 14:14:00,71.6,53.6,29.85,NNE,30,0.0,0.0,53,0.00,,BKN037,0.00,VWS V15.00,2014-08-20 20:14:00,
2014-08-20 14:19:00,71.4,52.9,29.85,North,353,0.0,0.0,52,0.00,,BKN037,0.00,VWS V15.00,2014-08-20 20:19:00,
2014-08-20 14:24:00,71.2,53.2,29.85,NNW,348,0.0,0.0,53,0.00,,BKN037,0.00,VWS V15.00,2014-08-20 20:24:00,
2014-08-20 14:29:00,71.4,52.9,29.85,North,357,0.0,0.0,52,0.00,,BKN037,0.00,VWS V15.00,2014-08-20 20:29:00,
2014-08-20 14:34:00,71.6,52.5,29.85,North,357,0.0,0.0,51,0.00,,BKN090,0.00,VWS V15.00,2014-08-20 20:34:00,
2014-08-20 14:39:00,71.4,51.8,29.85,North,353,0.0,0.0,50,0.00,,BKN090,0.00,VWS V15.00,2014-08-20 20:39:00,
2014-08-20 14:44:00,71.1,51.5,29.85,North,353,0.0,0.0,50,0.00,,BKN090,0.00,VWS V15.00,2014-08-20 20:44:00,
2014-08-20 14:49:00,70.9,51.3,29.85,South,179,0.0,0.0,50,0.00,,BKN090,0.00,VWS V15.00,2014-08-20 20:49:00,
2014-08-20 14:54:00,71.1,51.5,29.85,NE,44,0.0,0.0,50,0.00,,BKN090,0.00,VWS V15.00,2014-08-20 20:54:00,
2014-08-20 14:59:00,71.2,51.7,29.85,SW,222,0.0,0.0,50,0.00,,BKN090,0.00,VWS V15.00,2014-08-20 20:59:00,
2014-08-20 15:04:00,71.4,51.3,29.85,WNW,296,0.0,0.0,49,0.00,,BKN090,0.00,VWS V15.00,2014-08-20 21:04:00,
2014-08-20 15:09:00,71.4,51.8,29.85,NNE,14,0.0,0.0,50,0.00,,BKN090,0.00,VWS V15.00,2014-08-20 21:09:00,
2014-08-20 15:14:00,71.4,51.3,29.85,North,357,0.0,0.0,49,0.00,,BKN090,0.00,VWS V15.00,2014-08-20 21:14:00,
2014-08-20 15:19:00,71.4,51.3,29.85,East,95,0.0,2.2,49,0.00,,BKN090,0.00,VWS V15.00,2014-08-20 21:19:00,
2014-08-20 15:24:00,71.4,51.3,29.85,NNE,33,0.0,0.0,49,0.00,,BKN090,0.00,VWS V15.00,2014-08-20 21:24:00,
2014-08-20 15:29:00,71.4,50.7,29.85,ENE,68,0.0,0.0,48,0.00,,BKN090,0.00,VWS V15.00,2014-08-20 21:29:00,
2014-08-20 15:34:00,71.2,50.0,29.85,NE,51,0.0,3.6,47,0.00,,CLR,0.00,VWS V15.00,2014-08-20 21:34:00,
2014-08-20 15:39:00,71.2,50.0,29.85,East,96,0.0,0.0,47,0.00,,CLR,0.00,VWS V15.00,2014-08-20 21:39:00,
2014-08-20 15:44:00,71.4,50.7,29.85,NE,37,0.0,0.0,48,0.00,,CLR,0.00,VWS V15.00,2014-08-20 21:44:00,
2014-08-20 15:49:00,71.4,50.2,29.85,East,86,3.1,3.6,47,0.00,,CLR,0.00,VWS V15.00,2014-08-20 21:49:00,
2014-08-20 15:54:00,71.8,51.1,29.85,NE,47,0.0,0.0,48,0.00,,CLR,0.00,VWS V15.00,2014-08-20 21:54:00,
2014-08-20 15:59:00,72.0,50.7,29.85,ESE,118,0.0,0.0,47,0.00,,CLR,0.00,VWS V15.00,2014-08-20 21:59:00,
2014-08-20 16:04:00,72.3,51.0,29.85,SW,221,0.0,0.0,47,0.00,,CLR,0.00,VWS V15.00,2014-08-20 22:04:00,
2014-08-20 16:09:00,72.5,51.2,29.85,WSW,240,0.0,0.0,47,0.00,,CLR,0.00,VWS V15.00,2014-08-20 22:09:00,
2014-08-20 16:14:00,72.7,50.7,29.85,SSW,206,0.0,0.0,46,0.00,,CLR,0.00,VWS V15.00,2014-08-20 22:14:00,
2014-08-20 16:19:00,73.0,51.1,29.85,North,0,0.0,0.0,46,0.00,,CLR,0.00,VWS V15.00,2014-08-20 22:19:00,
2014-08-20 16:24:00,73.2,50.6,29.85,ENE,63,3.1,4.0,45,0.00,,CLR,0.00,VWS V15.00,2014-08-20 22:24:00,
2014-08-20 16:29:00,73.4,50.2,29.85,East,80,0.0,0.0,44,0.00,,CLR,0.00,VWS V15.00,2014-08-20 22:29:00,
2014-08-20 16:34:00,73.2,50.0,29.85,ENE,71,0.0,3.6,44,0.00,,CLR,0.00,VWS V15.00,2014-08-20 22:34:00,
2014-08-20 16:39:00,73.2,50.0,29.82,East,95,2.2,2.2,44,0.00,,CLR,0.00,VWS V15.00,2014-08-20 22:39:00,
2014-08-20 16:44:00,72.9,49.7,29.82,SE,139,2.7,4.0,44,0.00,,CLR,0.00,VWS V15.00,2014-08-20 22:44:00,
2014-08-20 16:49:00,72.7,49.5,29.82,North,2,0.0,0.0,44,0.00,,CLR,0.00,VWS V15.00,2014-08-20 22:49:00,
2014-08-20 16:54:00,72.5,49.4,29.82,North,357,0.0,0.0,44,0.00,,CLR,0.00,VWS V15.00,2014-08-20 22:54:00,
2014-08-20 16:59:00,72.3,48.6,29.82,ENE,76,0.0,0.0,43,0.00,,CLR,0.00,VWS V15.00,2014-08-20 22:59:00,
2014-08-20 17:04:00,72.3,49.2,29.82,NE,56,0.0,0.0,44,0.00,,CLR,0.00,VWS V15.00,2014-08-20 23:04:00,
2014-08-20 17:09:00,72.3,48.6,29.82,North,9,0.0,0.0,43,0.00,,CLR,0.00,VWS V15.00,2014-08-20 23:09:00,